Austin, MN

4:16 AM CDT on April 24, 2018 (GMT -0500)
Austin Municipal

Weather History for KAUM - October, 2011

Change the Weather History Date:

Sunday, October 2, 2011

  Actual Average Record
Temperature  
Mean Temperature 55 °F -  
Max Temperature 75 °F 64 °F 104 °F (1998)
Min Temperature 35 °F 41 °F 21 °F (2003)
Degree Days  
Heating Degree Days 10    
Growing Degree Days 5 (Base 50)    
Moisture  
Dew Point 35 °F    
Average Humidity 62    
Maximum Humidity 87    
Minimum Humidity 25    
Precipitation  
Precipitation 0.00 in - - ()
Sea Level Pressure  
Sea Level Pressure 30.24 in    
Wind  
Wind Speed 3 mph (South)    
Max Wind Speed 12 mph    
Max Gust Speed -    
Visibility 10 miles    
Events      
Averages and records for this station are not official NWS values.
T = Trace of Precipitation, MM = Missing Value Source: NWS Daily Summary

Daily Weather History Graph

Daily Weather History Graph

Search for Another Location

Airport or City:

Astronomy

Oct. 02, 2011 Rise Set
Actual Time 7:10 AM CDT 6:51 PM CDT
Civil Twilight 6:41 AM CDT 7:19 PM CDT
Nautical Twilight 6:08 AM CDT 7:53 PM CDT
Astronomical Twilight 5:34 AM CDT 8:26 PM CDT
Moon 1:28 PM CDT (10/2) 10:39 PM CDT (10/2)
Length of Visible Light 12h 38m
Length of Day
11h 41m
Waxing Crescent, 35% of the Moon is Illuminated
Oct 2
Waxing Crescent
Oct 3
First Quarter
Oct 11
Full
Oct 19
Last Quarter
Oct 26
New

Hourly Weather History & Observations

Time (CDT) Temp. Windchill Dew Point Humidity Pressure Visibility Wind Dir Wind Speed Gust Speed Precip Events Conditions
12:16 AM 39.2 °F - 32.0 °F 75% 30.25 in 10.0 mi Calm Calm - N/A   Clear
12:55 AM 39.2 °F - 30.2 °F 70% 30.25 in 10.0 mi Calm Calm - N/A   Clear
1:16 AM 35.6 °F - 30.2 °F 81% 30.25 in 10.0 mi Calm Calm - N/A   Clear
1:35 AM 37.4 °F 34.9 °F 32.0 °F 81% 30.25 in 10.0 mi SSE 3.5 mph - N/A   Clear
1:56 AM 39.2 °F 37.0 °F 32.0 °F 75% 30.25 in 10.0 mi SSE 3.5 mph - N/A   Clear
2:15 AM 39.2 °F - 32.0 °F 75% 30.25 in 10.0 mi Calm Calm - N/A   Clear
2:36 AM 39.2 °F - 32.0 °F 75% 30.25 in 10.0 mi Calm Calm - N/A   Clear
2:55 AM 39.2 °F - 32.0 °F 75% 30.25 in 10.0 mi Calm Calm - N/A   Clear
3:16 AM 37.4 °F - 32.0 °F 81% 30.25 in 10.0 mi Calm Calm - N/A   Clear
3:36 AM 35.6 °F 32.8 °F 30.2 °F 81% 30.25 in 10.0 mi SSE 3.5 mph - N/A   Clear
3:55 AM 35.6 °F - 30.2 °F 81% 30.25 in 10.0 mi Calm Calm - N/A   Clear
4:36 AM 37.4 °F 34.9 °F 32.0 °F 81% 30.25 in 10.0 mi SSE 3.5 mph - N/A   Clear
4:55 AM 37.4 °F - 32.0 °F 81% 30.25 in 10.0 mi Calm Calm - N/A   Clear
5:16 AM 39.2 °F 37.0 °F 33.8 °F 81% 30.26 in 10.0 mi SSE 3.5 mph - N/A   Clear
5:36 AM 37.4 °F 34.9 °F 33.8 °F 87% 30.26 in 10.0 mi SSE 3.5 mph - N/A   Clear
5:55 AM 39.2 °F 35.9 °F 33.8 °F 81% 30.26 in 10.0 mi SSE 4.6 mph - N/A   Clear
6:16 AM 39.2 °F 37.0 °F 33.8 °F 81% 30.26 in 10.0 mi SSE 3.5 mph - N/A   Clear
6:36 AM 37.4 °F 34.9 °F 33.8 °F 87% 30.26 in 10.0 mi SSE 3.5 mph - N/A   Clear
6:55 AM 37.4 °F 34.9 °F 33.8 °F 87% 30.27 in 10.0 mi SSE 3.5 mph - N/A   Clear
7:16 AM 37.4 °F - 33.8 °F 87% 30.27 in 10.0 mi Calm Calm - N/A   Clear
7:35 AM 37.4 °F - 33.8 °F 87% 30.27 in 10.0 mi Calm Calm - N/A   Clear
7:55 AM 39.2 °F 37.0 °F 33.8 °F 81% 30.27 in 10.0 mi SSE 3.5 mph - N/A   Clear
8:16 AM 41.0 °F - 33.8 °F 76% 30.26 in 10.0 mi Calm Calm - N/A   Clear
8:35 AM 42.8 °F 40.1 °F 35.6 °F 76% 30.26 in 10.0 mi South 4.6 mph - N/A   Clear
8:56 AM 44.6 °F 42.2 °F 37.4 °F 76% 30.25 in 10.0 mi South 4.6 mph - N/A   Clear
9:15 AM 48.2 °F - 37.4 °F 66% 30.25 in 10.0 mi South 5.8 mph - N/A   Clear
9:36 AM 51.8 °F - 39.2 °F 62% 30.25 in 10.0 mi South 8.1 mph - N/A   Clear
9:55 AM 55.4 °F - 37.4 °F 51% 30.25 in 10.0 mi SSW 8.1 mph - N/A   Clear
10:15 AM 57.2 °F - 37.4 °F 48% 30.25 in 10.0 mi SSW 11.5 mph - N/A   Clear
10:36 AM 59.0 °F - 39.2 °F 48% 30.24 in 10.0 mi SSW 6.9 mph - N/A   Clear
10:55 AM 62.6 °F - 39.2 °F 42% 30.24 in 10.0 mi SSW 9.2 mph - N/A   Clear
11:16 AM 64.4 °F - 37.4 °F 37% 30.24 in 10.0 mi SW 8.1 mph - N/A   Clear
11:36 AM 66.2 °F - 37.4 °F 35% 30.23 in 10.0 mi SW 10.4 mph - N/A   Clear
11:55 AM 66.2 °F - 37.4 °F 35% 30.23 in 10.0 mi SSW 11.5 mph - N/A   Clear
12:16 PM 68.0 °F - 39.2 °F 35% 30.22 in 10.0 mi SW 9.2 mph - N/A   Clear
12:35 PM 69.8 °F - 39.2 °F 33% 30.22 in 10.0 mi SW 9.2 mph - N/A   Clear
12:56 PM 69.8 °F - 39.2 °F 33% 30.21 in 10.0 mi SSW 6.9 mph - N/A   Clear
1:15 PM 71.6 °F - 39.2 °F 31% 30.20 in 10.0 mi SW 6.9 mph - N/A   Clear
1:56 PM 73.4 °F - 37.4 °F 27% 30.19 in 10.0 mi SW 5.8 mph - N/A   Clear
2:15 PM 73.4 °F - 37.4 °F 27% 30.18 in 10.0 mi South 6.9 mph - N/A   Clear
2:35 PM 75.2 °F - 39.2 °F 27% 30.18 in 10.0 mi SSW 6.9 mph - N/A   Unknown
2:56 PM 75.2 °F - 37.4 °F 25% 30.17 in 10.0 mi South 9.2 mph - N/A   Unknown
3:16 PM 75.2 °F - 37.4 °F 25% 30.17 in 10.0 mi SW 8.1 mph - N/A   Unknown
3:28 PM 75.2 °F - 37.4 °F 25% 30.16 in 10.0 mi WSW 3.5 mph - N/A   Clear